Torna al catalogo

STARLINK-11305

AttivoComunicazioniVLEO
NORAD 61247·PAYLOAD·🇺🇸 United States

Lanciato Sep 25, 2024 da Vandenberg Space Force Base

Loading…

Prossimi Passaggi (prossime 24 ore)

TLE

AggiornatoSource: CelesTrak SupGP

Epoca: Sep 15, 2026, 03:32 UTC

1 61247C 24175E   26258.14770833 -.00064867  00000+0 -53402-3 0  2582
2 61247  53.1570 202.1032 0001242  83.4055 354.0233 15.69755568    15

Traccia STARLINK-11305 in tempo reale con AllMySat

Download on the App Store